Fort Indiantown Gap, PA

11:12 PM EST on December 06, 2019 (GMT -0500)
Muir Army Air Field

Weather History for KMUI - October, 2019

Change the Weather History Date:

Monday, October 28, 2019

  Actual Average Record
Temperature  
Mean Temperature 58 °F -  
Max Temperature 67 °F 57 °F 75 °F (2014)
Min Temperature 49 °F 40 °F 28 °F (2013)
Degree Days  
Heating Degree Days 7    
Growing Degree Days 8 (Base 50)    
Moisture  
Dew Point 47 °F    
Average Humidity 67    
Maximum Humidity 91    
Minimum Humidity 52    
Precipitation  
Precipitation 0.00 in - - ()
Sea Level Pressure  
Sea Level Pressure 30.15 in    
Wind  
Wind Speed 5 mph (SSW)    
Max Wind Speed 13 mph    
Max Gust Speed 17 mph    
Visibility 10 miles    
Events      
Averages and records for this station are not official NWS values.
T = Trace of Precipitation, MM = Missing Value Source: NWS Daily Summary

Daily Weather History Graph

Daily Weather History Graph

Search for Another Location

Airport or City:

Astronomy

Oct. 28, 2019 Rise Set
Actual Time 7:31 AM EDT 6:08 PM EDT
Civil Twilight 7:03 AM EDT 6:36 PM EDT
Nautical Twilight 6:31 AM EDT 7:08 PM EDT
Astronomical Twilight 5:59 AM EDT 7:39 PM EDT
Moon 7:50 AM EDT (10/28) 6:52 PM EDT (10/28)
Length of Visible Light 11h 33m
Length of Day
10h 37m
New Moon, 0% of the Moon is Illuminated
Oct 28
New Moon
Nov 4
First Quarter
Nov 12
Full
Nov 19
Last Quarter
Nov 26
New

Hourly Weather History & Observations

Time (EDT) Temp. Dew Point Humidity Pressure Visibility Wind Dir Wind Speed Gust Speed Precip Events Conditions
12:56 AM 57.0 °F 45.0 °F 64% 30.02 in 10.0 mi West 10.4 mph - N/A   Scattered Clouds
1:56 AM 57.0 °F 45.3 °F 65% 30.03 in 10.0 mi West 9.2 mph - N/A   Scattered Clouds
2:56 AM 56.8 °F 45.1 °F 65% 30.04 in 10.0 mi West 12.7 mph 17.3 mph N/A   Unknown
3:56 AM 56.7 °F 45.0 °F 65% 30.06 in 10.0 mi Calm Calm - N/A   Clear
4:56 AM 55.8 °F 45.0 °F 67% 30.07 in 10.0 mi Calm Calm - N/A   Clear
5:56 AM 55.8 °F 44.6 °F 66% 30.09 in 10.0 mi NW 3.5 mph - N/A   Clear
6:56 AM 53.4 °F 45.0 °F 73% 30.12 in 10.0 mi Calm Calm - N/A   Clear
7:56 AM 52.9 °F 44.8 °F 74% 30.15 in 10.0 mi WSW 3.5 mph - N/A   Clear
8:56 AM 57.9 °F 45.9 °F 64% 30.17 in 10.0 mi Calm Calm - N/A   Clear
9:56 AM 60.8 °F 45.9 °F 58% 30.18 in 10.0 mi North 5.8 mph - N/A   Clear
10:56 AM 61.9 °F 46.9 °F 58% 30.19 in 10.0 mi ENE 5.8 mph - N/A   Partly Cloudy
11:56 AM 64.2 °F 47.7 °F 55% 30.19 in 10.0 mi ESE 6.9 mph - N/A   Clear
12:56 PM 65.5 °F 48.4 °F 54% 30.18 in 10.0 mi South 3.5 mph - N/A   Clear
1:56 PM 66.4 °F 49.3 °F 54% 30.18 in 10.0 mi SE 5.8 mph - N/A   Clear
2:56 PM 67.1 °F 48.9 °F 52% 30.17 in 10.0 mi SSW 3.5 mph - N/A   Partly Cloudy
3:56 PM 67.3 °F 49.6 °F 53% 30.17 in 10.0 mi SSE 9.2 mph - N/A   Partly Cloudy
4:56 PM 65.7 °F 48.6 °F 54% 30.17 in 10.0 mi SSE 6.9 mph - N/A   Partly Cloudy
5:56 PM 63.3 °F 48.7 °F 59% 30.17 in 10.0 mi Calm Calm - N/A   Partly Cloudy
6:56 PM 56.1 °F 49.6 °F 79% 30.19 in 10.0 mi Calm Calm - N/A   Partly Cloudy
7:56 PM 54.3 °F 48.9 °F 82% 30.20 in 10.0 mi Calm Calm - N/A   Clear
8:56 PM 52.2 °F 48.0 °F 86% 30.22 in 10.0 mi Calm Calm - N/A   Clear
9:56 PM 49.8 °F 47.3 °F 91% 30.24 in 10.0 mi NNE 4.6 mph - N/A   Clear
10:56 PM 50.5 °F 47.7 °F 90% 30.25 in 10.0 mi Calm Calm - N/A   Mostly Cloudy
11:56 PM 54.1 °F 49.6 °F 85% 30.26 in 10.0 mi Calm Calm - N/A   Overcast